GEFSNGP_500_meanwind_192.txt.gz
Wind_Speed
36 35 36 36 36 36 39 40 43 41 40 37 38 39 38 38 39 40 40 40 41 41 42 42 43 44 44 45 46 47 48 47 47 47 48 49 50 51 52 53 53 52 51 50
38 37 38 39 37 37 39 40 42 43 41 38 40 41 40 40 40 40 40 40 40 41 41 42 42 43 44 44 45 47 48 48 48 49 49 49 50 50 50 51 52 52 51 50
40 38 40 40 36 37 39 39 41 42 40 39 40 41 42 41 41 41 41 41 41 41 41 42 42 42 43 43 44 45 47 48 48 49 50 50 49 49 48 49 51 52 51 50
41 41 42 38 37 38 39 39 40 41 40 40 41 41 42 42 42 42 43 43 43 43 43 42 43 43 43 43 44 45 46 48 49 49 50 49 48 47 47 48 49 50 50 49
41 42 43 39 37 38 40 39 38 40 40 41 41 42 42 42 42 42 42 42 42 43 43 42 42 43 43 43 44 45 45 46 47 48 47 47 47 47 47 47 47 48 48 47
41 43 43 39 38 39 41 39 37 39 40 40 41 41 39 40 41 41 41 41 41 42 42 42 42 42 43 44 44 43 43 44 45 45 43 43 44 45 46 46 45 45 46 46
40 42 42 38 39 40 40 39 39 40 40 40 41 40 39 39 39 40 41 41 42 43 43 42 42 42 42 42 43 42 41 42 42 42 42 41 41 42 42 42 43 43 44 43
41 43 41 39 40 39 39 39 39 40 40 40 40 39 39 39 40 40 41 42 43 43 43 42 41 41 41 41 40 40 40 40 41 41 40 40 40 40 40 40 41 41 42 43
42 41 40 41 41 40 40 40 39 39 40 40 39 39 40 40 40 40 41 42 42 42 40 40 39 40 39 39 39 39 39 38 38 39 40 39 38 38 38 38 38 39 39 40
42 41 41 41 41 40 40 40 40 40 40 40 39 39 40 41 41 41 41 40 40 39 38 38 38 38 38 37 37 37 36 36 36 36 37 38 37 37 36 36 37 38 38 39
43 41 42 41 40 39 40 40 40 41 41 41 41 40 41 41 40 40 39 39 39 38 37 37 37 37 35 35 35 35 34 33 33 34 34 34 35 35 34 35 36 36 37 38
42 40 42 41 40 41 40 40 41 41 41 41 41 41 41 41 40 39 38 38 38 37 36 36 35 34 34 33 33 33 33 33 32 32 33 33 33 33 33 34 35 35 36 37
40 41 42 41 40 40 40 41 41 41 41 41 40 40 40 39 39 38 37 37 36 36 35 34 33 32 32 32 32 32 32 32 31 31 30 31 32 32 32 33 34 34 35 36
39 40 40 39 39 40 41 41 41 40 39 39 38 38 38 38 37 37 36 36 35 35 34 33 32 31 31 30 30 30 30 31 31 31 30 30 31 31 32 31 32 33 33 34
37 38 39 38 39 39 39 39 39 38 37 36 36 36 37 36 36 34 34 33 33 33 32 32 31 31 30 29 29 29 30 31 31 30 30 30 30 31 31 30 30 31 32 32
36 37 37 36 36 36 37 37 36 36 36 35 35 35 35 34 33 32 32 32 31 31 31 31 31 30 29 29 29 29 29 30 30 29 29 29 29 30 30 30 30 31 30 30
33 33 34 34 34 35 34 34 34 34 34 33 33 32 32 31 30 30 30 30 30 29 29 29 29 29 29 29 29 29 29 28 29 28 28 29 29 29 29 29 29 28 28 28
31 31 31 32 32 32 32 33 32 32 31 31 31 30 29 29 29 29 28 28 28 28 28 28 28 28 29 29 28 28 27 27 27 27 28 28 27 27 27 27 27 27 26 26
29 30 30 30 30 31 31 31 30 30 30 29 29 29 28 28 28 28 28 28 27 27 27 27 27 27 27 27 27 26 26 26 26 26 26 26 26 25 25 25 25 25 25 25
28 29 29 29 30 30 29 29 29 29 28 28 28 27 27 27 27 27 27 26 26 26 26 25 25 25 26 26 25 25 25 25 25 24 24 24 24 23 23 23 23 23 23 23
28 28 28 28 28 28 28 28 28 28 28 27 27 26 25 25 25 25 25 25 25 25 24 24 24 24 24 24 24 24 24 24 23 23 22 21 21 22 22 22 22 22 22 22
28 28 28 27 27 26 27 27 27 26 26 25 24 24 24 24 24 24 24 24 24 24 24 23 23 23 23 23 22 22 22 22 22 22 21 20 20 20 20 20 21 21 21 21
26 26 26 26 26 26 26 26 25 24 24 23 23 23 23 23 24 23 23 23 23 24 23 23 22 22 22 22 21 20 20 20 20 20 19 20 20 20 19 19 19 19 19 20
25 25 25 25 25 24 24 24 23 23 23 22 22 23 23 23 22 22 22 22 22 22 22 21 22 21 21 22 21 20 20 19 19 19 19 19 19 19 19 18 18 19 19 19
24 24 23 23 22 22 22 22 22 22 22 22 22 23 23 22 22 22 21 21 21 21 20 20 20 20 21 21 20 20 20 19 19 19 19 19 19 18 18 18 18 18 19 19
23 23 22 22 21 21 21 21 22 22 22 23 23 23 22 21 21 21 20 20 20 19 19 19 19 19 18 18 18 18 17 17 17 16 16 16 16 16 16 17 17 18 18 18
23 22 23 22 22 21 21 21 21 22 22 22 22 22 21 20 20 20 19 19 18 18 17 17 17 16 16 16 16 16 15 15 15 15 14 14 14 15 15 15 16 16 16 16

GEFSNGP_500_meanwind_198.txt.gz
Wind_Speed
43 43 43 44 43 42 43 44 45 42 41 38 38 40 40 40 41 41 41 41 42 42 42 43 43 44 44 45 45 45 46 47 48 49 50 50 50 50 49 49 49 49 49 50
44 43 44 45 43 41 42 43 44 44 42 39 40 41 42 42 42 42 42 42 43 44 44 44 43 43 44 45 46 47 47 48 49 49 49 48 49 49 50 50 50 49 49 50
43 42 45 45 40 41 42 42 42 43 41 41 41 42 43 43 43 43 43 43 43 44 44 44 44 44 45 45 47 48 49 49 48 47 47 47 48 49 50 49 49 50 50 50
43 44 46 42 40 40 41 40 40 41 41 42 42 43 43 44 45 45 45 44 44 44 44 45 45 45 45 46 47 47 48 48 48 46 46 46 47 48 49 49 49 49 49 49
43 45 46 41 39 40 41 41 39 41 41 42 42 43 43 45 46 46 46 45 44 44 44 44 44 44 45 45 46 47 47 47 46 46 46 47 47 47 48 48 47 47 48 47
44 45 46 41 39 40 42 42 39 41 42 42 43 43 43 44 45 46 46 46 45 44 44 44 44 44 44 44 45 45 44 43 44 44 45 46 46 46 46 46 46 47 46 46
43 45 44 40 39 40 41 40 41 42 42 42 43 43 43 44 44 45 44 45 45 45 45 44 44 44 44 44 44 43 42 42 43 44 45 45 45 45 45 44 44 44 43 44
42 44 42 39 40 40 41 41 41 42 42 43 43 43 43 44 44 44 44 45 46 46 45 44 44 44 44 44 43 43 42 42 42 43 43 44 43 43 44 44 43 42 42 42
43 42 41 40 41 41 42 42 42 43 43 43 44 44 44 44 44 44 45 45 46 46 45 44 44 44 44 43 42 42 41 41 41 41 41 41 41 41 40 40 40 39 39 39
43 41 40 41 41 42 43 44 44 44 44 44 44 44 44 44 43 43 44 44 44 44 44 44 44 44 43 43 43 41 40 40 39 39 38 38 37 37 36 36 36 36 35 35
42 40 41 41 42 43 44 45 44 44 44 44 44 44 44 43 43 43 43 43 43 42 42 42 42 42 42 41 41 40 40 39 38 38 36 35 34 33 33 33 33 33 33 33
41 40 42 42 42 44 44 44 44 43 44 43 44 43 43 42 42 42 42 42 41 41 41 41 40 40 40 40 39 38 38 37 36 35 34 33 32 31 31 32 32 31 31 30
41 41 42 42 42 42 43 43 43 43 43 43 42 42 41 41 41 41 41 40 40 40 39 39 39 39 38 38 37 37 36 35 34 33 32 32 31 30 30 29 29 30 29 29
41 41 41 41 42 42 42 42 41 41 42 42 42 41 41 40 40 39 39 39 39 39 38 38 37 37 36 36 35 34 34 33 32 32 31 31 30 29 29 29 28 28 27 27
40 40 40 41 41 41 40 40 40 39 40 40 40 40 39 39 38 38 38 39 38 38 38 37 36 35 34 34 33 32 32 31 31 30 30 30 30 29 28 28 27 27 26 26
38 38 39 39 38 38 39 39 39 38 39 39 39 39 38 38 38 38 38 38 38 37 36 35 34 33 32 32 31 31 30 30 30 29 29 28 28 27 26 26 26 26 25 24
36 36 36 36 36 37 37 38 38 37 38 38 38 37 37 37 37 37 36 36 36 35 33 32 32 31 31 31 30 30 29 29 29 28 27 26 25 25 25 25 25 25 25 25
34 34 34 35 36 36 36 37 37 37 36 36 36 36 36 35 35 34 33 32 31 31 30 30 29 29 29 28 28 28 28 28 28 27 26 26 25 24 23 23 23 23 23 23
32 33 34 34 35 35 36 35 35 34 34 34 34 33 33 32 32 31 30 29 29 28 28 28 27 27 27 27 27 26 26 25 25 25 24 24 23 23 22 21 21 21 20 21
31 32 32 33 33 33 33 33 33 33 32 32 31 31 30 30 30 29 29 28 27 27 27 27 26 26 25 25 24 24 23 23 23 23 23 22 22 21 21 21 20 20 19 19
30 30 31 31 31 31 32 32 31 30 30 30 29 29 29 28 28 27 27 26 26 26 26 26 25 24 24 23 23 22 22 22 22 22 21 20 20 20 20 20 20 19 19 19
30 30 30 29 29 29 30 29 28 28 28 27 27 28 27 27 26 26 25 24 24 25 25 24 23 23 23 22 21 20 21 21 21 20 20 20 20 19 19 19 19 19 19 19
30 29 28 28 28 28 27 27 26 26 26 26 26 26 26 25 25 24 23 23 24 23 22 22 22 21 21 20 20 20 20 20 20 20 19 19 19 19 18 18 18 18 19 18
27 27 27 26 26 25 25 25 25 25 25 24 24 24 24 24 23 23 23 22 22 21 21 20 20 19 19 19 19 19 19 19 19 18 18 17 18 18 18 18 18 18 18 18
26 25 24 24 23 23 23 24 23 23 23 23 23 22 22 22 22 22 22 21 20 20 19 19 18 18 17 18 18 18 18 17 17 17 17 16 16 16 16 17 17 17 17 17
24 24 23 23 23 23 23 23 22 22 22 22 22 22 21 21 21 20 20 20 19 19 18 17 17 16 16 16 17 17 17 16 16 15 15 15 15 16 17 17 17 17 17 16
23 23 23 23 23 23 23 22 22 22 22 21 21 21 21 21 20 20 20 19 18 18 18 17 17 16 16 16 16 16 15 15 14 14 14 14 15 15 15 16 15 15 14 14

GEFSNGP_500_meanwind_204.txt.gz
Wind_Speed
42 42 42 41 41 41 42 42 43 41 40 38 38 40 41 41 40 40 39 39 39 40 40 41 41 41 41 42 43 44 44 45 45 46 47 48 48 48 49 48 48 49 50 50
43 42 43 43 41 41 41 40 41 41 40 38 39 40 40 39 39 39 39 39 40 40 41 41 42 42 42 42 43 43 44 45 46 47 48 49 49 49 48 49 49 49 49 50
43 42 44 44 39 40 40 39 40 41 39 39 40 40 39 39 39 39 39 39 40 41 41 42 42 42 42 43 43 44 44 46 47 48 48 49 49 49 49 49 49 50 50 50
43 43 46 42 40 39 40 39 40 41 40 39 39 39 39 39 40 39 39 40 40 41 41 42 42 43 43 43 43 44 45 47 47 48 49 49 48 47 47 47 47 47 49 49
42 44 44 41 39 38 39 40 39 40 40 40 40 40 38 38 39 40 40 41 41 41 42 42 42 43 44 44 44 45 46 47 47 47 47 47 46 46 45 45 45 45 46 47
41 42 43 41 39 39 41 41 39 39 40 40 39 39 38 38 39 40 41 42 42 42 42 42 42 43 43 44 45 45 45 45 45 45 45 44 44 44 44 44 43 43 44 44
41 43 43 40 40 40 40 40 38 38 38 38 38 38 38 37 38 39 40 41 41 41 41 41 42 42 43 43 43 43 44 44 44 44 43 43 43 44 44 44 43 42 42 42
41 43 42 40 39 39 39 39 38 38 37 38 37 37 37 38 38 39 40 40 40 40 41 41 42 42 43 43 43 42 43 43 43 43 43 43 42 42 42 42 42 41 40 40
41 41 40 40 40 40 40 39 38 38 38 38 38 38 38 38 39 39 39 39 40 40 41 41 42 43 43 42 42 42 42 42 41 41 41 42 42 41 41 41 40 40 40 39
39 38 39 40 40 39 39 38 38 38 38 38 39 39 39 39 39 39 39 40 40 41 41 42 42 43 42 42 42 41 41 41 41 41 40 40 39 39 39 38 38 38 37 37
38 37 38 38 38 39 39 39 39 39 39 39 39 39 39 39 39 39 39 40 40 41 42 42 42 42 41 41 41 41 41 40 40 39 39 38 38 37 36 35 35 34 33 32
37 36 37 37 38 38 39 39 40 40 40 40 40 39 39 39 38 39 39 40 41 41 41 40 41 41 41 41 40 40 40 39 38 38 37 37 36 35 35 34 33 32 32 31
38 38 39 38 38 39 39 40 40 40 40 40 39 39 39 39 39 39 39 40 41 40 40 40 40 40 39 39 38 38 37 36 36 35 35 34 33 32 32 31 30 30 30 29
39 40 40 39 39 39 40 40 40 39 39 38 39 39 39 39 40 40 40 40 40 40 40 40 40 38 37 37 36 35 34 33 33 32 31 31 30 29 29 28 28 28 28 28
37 38 38 38 38 38 38 38 38 38 38 38 39 39 39 39 39 39 39 39 39 39 39 38 37 36 35 35 33 32 31 30 30 29 29 28 27 27 27 26 26 26 26 25
33 34 35 35 35 35 35 36 36 36 37 37 37 38 38 38 38 38 38 38 38 37 37 36 34 33 33 32 30 29 28 27 27 27 26 26 26 25 24 24 23 23 22 22
30 30 31 32 32 33 33 34 35 35 35 35 35 35 36 36 36 36 36 36 35 34 33 32 31 30 30 29 27 26 26 26 26 25 25 25 24 23 21 21 21 21 20 20
27 28 28 29 30 31 32 32 33 33 33 33 33 33 33 33 33 33 32 32 31 30 30 29 28 28 27 26 25 24 24 24 24 24 24 22 21 20 20 19 19 19 19 18
26 26 27 27 27 28 29 29 30 30 31 32 32 32 32 32 31 30 30 29 28 28 28 27 27 26 25 24 23 23 22 22 22 22 21 19 18 18 18 18 18 18 18 17
24 25 25 25 25 26 27 28 29 29 30 30 31 31 30 29 29 28 28 27 27 26 25 25 25 24 24 23 22 22 21 21 19 18 17 17 16 16 16 17 17 17 16 16
23 23 24 24 25 26 26 27 28 28 28 29 29 29 28 27 27 26 25 25 25 24 24 24 23 23 22 21 20 20 20 19 18 17 16 16 16 16 16 16 16 16 16 15
22 22 23 24 25 25 26 26 26 27 27 27 27 26 25 25 24 24 24 24 24 24 23 22 22 21 20 19 19 19 18 17 17 17 16 16 16 16 16 16 15 15 15 15
21 22 23 23 24 24 24 24 25 24 24 24 24 24 24 24 23 23 23 23 23 23 22 21 20 20 19 19 18 18 18 17 17 17 16 16 17 16 16 15 15 15 15 15
22 22 22 23 23 23 22 22 22 22 22 22 22 23 22 22 22 22 22 22 21 21 20 20 19 19 18 18 18 17 17 17 17 17 16 17 16 16 16 15 15 15 15 15
22 22 22 21 21 21 21 21 20 20 21 21 21 21 21 21 20 20 20 20 20 19 19 19 18 17 17 17 17 17 16 16 16 16 16 16 16 15 15 14 14 14 14 15
22 21 21 21 20 20 20 20 20 20 21 21 20 20 19 19 19 19 19 19 18 18 18 17 16 17 17 17 16 16 16 16 16 16 16 15 15 15 14 14 14 14 14 14
20 20 20 20 20 20 20 20 20 20 20 19 18 18 18 18 18 18 17 17 17 16 16 16 16 16 16 16 17 17 17 16 16 15 15 14 14 13 13 13 13 12 12 12

GEFSNGP_500_meanwind_210.txt.gz
Wind_Speed
41 41 42 42 41 42 44 44 45 43 42 40 40 40 41 42 43 43 44 43 43 43 44 44 43 43 44 44 44 44 44 43 43 44 44 44 45 47 48 49 49 50 50 50
42 41 43 44 43 43 43 44 44 44 42 40 40 41 42 43 43 44 44 44 44 44 43 43 43 43 43 43 43 42 43 43 43 44 44 44 45 47 48 48 48 49 49 50
43 42 44 46 42 42 42 42 43 44 43 41 41 41 42 43 44 44 44 43 43 42 42 42 42 42 42 42 42 42 43 43 43 44 44 45 45 46 47 47 48 49 49 50
44 44 47 43 41 41 41 41 41 42 42 42 42 42 42 44 44 44 43 42 41 42 42 42 42 42 42 42 42 43 43 44 44 44 44 45 46 47 48 48 49 49 49 49
44 45 46 42 40 40 40 40 40 41 41 41 42 42 42 42 42 42 42 41 41 42 41 41 41 40 41 41 42 42 42 43 44 45 45 45 46 47 49 49 49 48 48 48
42 43 44 41 39 39 40 41 39 39 40 40 41 42 41 41 41 41 40 40 41 41 41 40 40 40 40 40 41 41 42 43 44 45 45 45 46 47 47 47 47 47 46 47
41 42 42 40 39 40 41 40 39 39 39 39 40 40 40 40 39 39 39 40 40 41 41 39 39 39 40 41 42 42 43 43 44 44 45 45 45 46 47 47 47 46 47 47
39 41 40 39 40 41 41 40 40 39 39 38 38 38 38 38 38 38 39 39 40 40 39 39 40 40 40 41 42 42 43 43 43 44 44 44 45 45 46 46 46 46 46 45
36 38 38 39 40 40 40 40 39 39 38 38 37 37 37 37 38 38 38 38 39 39 39 40 40 40 40 41 42 42 42 42 43 43 44 44 45 45 45 46 45 45 44 43
36 36 37 39 40 40 40 40 40 40 39 38 38 37 37 38 38 38 38 38 38 38 38 39 40 40 41 42 42 42 42 42 42 42 43 44 44 44 44 44 43 43 42 42
38 38 39 39 38 38 39 40 40 39 38 38 38 38 38 38 38 38 38 38 38 38 38 39 40 41 41 41 41 41 42 42 41 42 42 43 43 43 42 41 42 41 40 38
37 36 38 38 39 39 40 40 39 39 39 38 38 39 39 38 38 38 38 38 39 39 39 39 40 40 41 41 41 41 42 42 42 42 42 41 41 40 39 39 38 38 36 35
37 38 39 39 39 39 39 39 39 39 40 40 40 40 39 39 39 38 38 38 39 39 39 39 40 40 41 40 41 41 41 42 41 41 40 40 39 38 36 35 35 34 33 32
36 37 38 38 38 38 38 38 39 40 40 40 40 40 40 39 39 39 39 39 40 40 40 40 40 40 40 40 41 40 40 40 40 39 38 38 37 35 34 33 32 30 30 29
35 35 36 36 37 37 38 39 39 39 39 39 39 39 40 40 40 40 40 40 40 40 41 40 40 40 40 40 39 38 38 37 36 36 35 34 33 32 31 30 29 27 27 25
33 34 35 36 37 37 37 38 38 38 38 38 38 38 38 38 38 39 39 39 39 39 39 39 38 38 37 37 36 36 35 34 34 33 32 31 30 29 28 27 25 24 23 23
32 32 33 33 33 33 34 35 35 36 36 36 36 36 36 36 36 37 36 36 36 35 36 35 35 35 34 34 34 33 33 32 32 31 30 29 28 26 26 25 23 22 21 21
29 30 30 30 30 30 31 31 32 32 32 32 33 33 34 34 34 33 33 34 34 34 34 34 34 33 32 32 31 31 31 29 29 28 27 26 25 24 23 22 21 20 19 19
26 27 27 28 29 29 29 29 29 29 29 30 30 31 31 31 32 32 32 32 32 32 32 32 31 31 30 29 29 28 28 27 26 25 25 24 23 22 21 20 19 18 17 17
24 25 25 26 27 27 28 28 28 28 29 29 29 30 30 31 31 31 30 30 30 30 29 29 29 28 28 27 26 26 26 25 23 23 23 21 20 20 20 19 18 17 16 15
24 25 25 26 27 27 27 27 27 27 28 28 29 29 29 29 29 29 28 27 27 27 27 27 26 26 26 25 25 24 24 23 21 21 21 20 20 19 18 17 17 16 14 14
24 24 25 25 25 25 25 25 26 26 27 27 27 28 28 28 27 27 26 26 26 26 25 25 24 24 24 24 24 23 22 21 20 20 20 19 19 18 17 16 15 14 14 13
23 23 23 23 23 24 24 25 25 26 26 26 27 27 27 26 26 26 26 26 26 25 25 24 24 23 23 23 22 21 21 20 20 19 18 18 17 16 16 15 14 13 13 13
22 22 22 22 22 23 23 24 25 25 26 26 26 26 26 26 25 26 25 25 25 25 24 24 23 23 23 22 21 20 20 20 19 18 17 16 16 16 16 15 15 14 14 13
21 21 21 22 22 23 23 23 24 24 24 24 24 25 25 25 25 25 25 24 24 23 23 22 23 22 22 21 20 20 19 19 18 18 17 16 16 15 15 15 15 14 13 12
21 22 22 22 22 22 22 22 22 22 23 23 23 24 24 24 24 24 24 23 23 22 22 21 21 21 20 20 19 19 19 18 17 17 16 15 15 14 14 13 13 13 12 12
22 21 21 21 21 22 21 21 21 21 21 21 21 21 22 22 22 22 21 21 21 21 20 20 20 20 19 19 18 18 17 17 16 15 15 14 14 13 12 12 12 11 11 10